F4GQK-13 Weather Reports


time (UTC)temp
C
wind
direction
speed
KPH
gust
KPH
rain 1hr
cm
rain 24hr
cm
rain mn
cm
humidity
%
barometer
mb
20260510021005 13 63 6.4 11.3 0.00 0.00 0.00 82 1011.2
20260510020503 13 58 3.2 11.3 0.00 0.00 0.00 82 1011.1
20260510020005 13 65 4.8 9.7 0.00 0.00 0.00 81 1011.2
20260510015505 13 78 9.7 11.3 0.00 0.00 0.00 81 1011.4
20260510015005 13 101 4.8 11.3 0.00 0.00 0.00 81 1011.4
20260510014505 13 78 4.8 11.3 0.00 0.00 0.00 81 1011.4
20260510014004 13 45 6.4 9.7 0.00 0.00 0.00 81 1011.4
20260510013505 13 86 6.4 11.3 0.00 0.00 0.00 81 1011.3
20260510013005 13 15 6.4 6.4 0.00 0.00 0.00 81 1011.4
20260510012505 13 73 6.4 12.9 0.00 0.00 0.00 81 1011.4
20260510012004 13 46 4.8 12.9 0.00 0.00 0.00 81 1011.4
20260510011505 13 51 8.0 11.3 0.00 0.00 0.00 81 1011.4
20260510011004 13 0 8.0 12.9 0.00 0.00 0.00 81 1011.2
20260510010505 13 58 9.7 14.5 0.00 0.00 0.00 81 1011.6
20260510010006 13 116 3.2 9.7 0.00 0.00 0.00 81 1011.7
20260510005504 13 41 6.4 9.7 0.00 0.00 0.00 81 1011.8
20260510005005 13 47 4.8 9.7 0.00 0.00 0.00 81 1011.9
20260510004506 13 344 3.2 6.4 0.00 0.00 0.00 81 1012.0
20260510004005 13 83 4.8 6.4 0.00 0.00 0.00 81 1011.9
20260510003502 13 60 6.4 6.4 0.00 0.00 0.00 81 1011.9
20260510003005 14 10 3.2 9.7 0.00 0.00 0.00 81 1011.9
20260510002505 14 81 3.2 4.8 0.00 0.00 0.00 81 1011.9
20260510002005 14 16 4.8 6.4 0.00 0.00 0.00 80 1011.9
20260510001505 14 55 6.4 9.7 0.00 0.00 0.00 80 1012.2
20260510001006 15 95 3.2 6.4 0.00 0.00 0.00 79 1012.3
20260510000505 15 74 6.4 11.3 0.00 0.00 0.00 79 1012.3
20260510000005 15 80 3.2 9.7 0.00 0.00 0.00 79 1012.1
20260509235504 15 348 4.8 12.9 0.00 0.00 0.00 78 1012.3
20260509235005 15 354 4.8 9.7 0.00 0.00 0.00 78 1012.3
20260509234505 15 90 4.8 11.3 0.00 0.00 0.00 78 1012.4
20260509234004 15 35 8.0 12.9 0.00 0.00 0.00 79 1012.4
20260509233505 15 11 6.4 12.9 0.00 0.00 0.00 78 1012.4
20260509233005 15 38 4.8 9.7 0.00 0.00 0.00 78 1012.6
20260509232505 15 22 3.2 9.7 0.00 0.00 0.00 79 1012.5
20260509232004 15 10 6.4 9.7 0.00 0.00 0.00 79 1012.7
20260509231505 15 350 6.4 6.4 0.00 0.00 0.00 78 1012.8
20260509231005 15 31 3.2 9.7 0.00 0.00 0.00 78 1012.8
20260509230505 15 8 4.8 9.7 0.00 0.00 0.00 77 1012.8
20260509230006 15 344 3.2 6.4 0.00 0.00 0.00 78 1012.8
20260509225503 15 15 4.8 6.4 0.00 0.00 0.00 77 1012.9
20260509225006 15 8 3.2 4.8 0.00 0.00 0.00 78 1013.0
20260509224503 15 19 3.2 4.8 0.00 0.00 0.00 78 1012.9
20260509224005 15 50 1.6 3.2 0.00 0.00 0.00 78 1013.1
20260509223505 15 31 3.2 4.8 0.00 0.00 0.00 77 1012.9
20260509223004 15 7 3.2 4.8 0.00 0.00 0.00 77 1012.8
20260509222505 15 51 1.6 4.8 0.00 0.00 0.00 77 1012.8
20260509222005 15 25 1.6 4.8 0.00 0.00 0.00 77 1012.8
20260509221505 15 72 3.2 6.4 0.00 0.00 0.00 78 1012.8
20260509221005 15 76 4.8 6.4 0.00 0.00 0.00 78 1012.8
20260509220505 15 72 3.2 6.4 0.00 0.00 0.00 77 1012.8
20260509220005 16 56 3.2 4.8 0.00 0.00 0.00 77 1012.8
20260509215504 16 18 4.8 6.4 0.00 0.00 0.00 77 1012.8
20260509215004 16 90 6.4 6.4 0.00 0.00 0.00 77 1012.7
20260509214505 16 42 4.8 4.8 0.00 0.00 0.00 78 1012.7
20260509214005 16 101 4.8 6.4 0.00 0.00 0.00 77 1012.9
20260509213505 16 76 4.8 9.7 0.00 0.00 0.00 78 1013.0
20260509213007 16 72 1.6 4.8 0.00 0.00 0.00 78 1013.0
20260509212505 16 42 3.2 4.8 0.00 0.00 0.00 78 1013.0
20260509212004 16 58 3.2 6.4 0.00 0.00 0.00 78 1013.2
20260509211505 16 19 4.8 4.8 0.00 0.00 0.00 78 1013.0
20260509211004 16 16 4.8 11.3 0.00 0.00 0.00 78 1013.0
20260509210506 16 37 3.2 6.4 0.00 0.00 0.00 79 1013.1
20260509210005 16 23 4.8 4.8 0.00 0.00 0.00 79 1013.1
20260509205505 16 29 1.6 4.8 0.00 0.00 0.00 79 1013.0
20260509205006 16 21 1.6 4.8 0.00 0.00 0.00 79 1012.9
20260509204504 16 26 3.2 4.8 0.00 0.00 0.00 79 1013.0
20260509204005 16 36 3.2 6.4 0.00 0.00 0.00 80 1012.9
20260509203504 16 25 3.2 6.4 0.00 0.00 0.00 79 1012.9
20260509203005 16 49 1.6 3.2 0.00 0.00 0.00 79 1012.9
20260509202504 16 351 1.6 3.2 0.00 0.00 0.00 79 1012.8
20260509202004 16 354 4.8 4.8 0.00 0.00 0.00 80 1012.9
20260509201504 16 0 3.2 3.2 0.00 0.00 0.00 80 1013.1
20260509201005 16 23 1.6 4.8 0.00 0.00 0.00 79 1012.9
20260509200505 17 20 1.6 3.2 0.00 0.00 0.00 79 1012.7
20260509195505 17 71 0.0 1.6 0.00 0.00 0.00 78 1013.0
20260509195004 17 60 0.0 1.6 0.00 0.00 0.00 78 1012.9
20260509194504 17 61 1.6 3.2 0.00 0.00 0.00 77 1012.9
20260509194006 17 39 1.6 3.2 0.00 0.00 0.00 77 1012.7
20260509193504 17 15 1.6 4.8 0.00 0.00 0.00 77 1012.8
20260509193006 17 19 3.2 4.8 0.00 0.00 0.00 76 1012.7
20260509192505 18 0 1.6 6.4 0.00 0.00 0.00 76 1012.6
20260509192005 18 12 1.6 3.2 0.00 0.00 0.00 75 1012.5
20260509191505 18 23 1.6 4.8 0.00 0.00 0.00 75 1012.6
20260509191005 18 18 3.2 4.8 0.00 0.00 0.00 74 1012.6
20260509190504 18 352 3.2 4.8 0.00 0.00 0.00 74 1012.6
20260509190006 19 25 1.6 3.2 0.00 0.00 0.00 73 1012.6
20260509185505 19 0 1.6 3.2 0.00 0.00 0.00 72 1012.7
20260509185005 19 61 1.6 1.6 0.00 0.00 0.00 71 1012.7
20260509184504 20 63 3.2 4.8 0.00 0.00 0.00 71 1012.6
20260509184004 20 53 3.2 3.2 0.00 0.00 0.00 70 1012.4
20260509183505 20 356 3.2 4.8 0.00 0.00 0.00 69 1012.6
20260509183006 20 47 3.2 4.8 0.00 0.00 0.00 68 1012.3
20260509182504 21 0 4.8 4.8 0.00 0.00 0.00 68 1012.6
20260509182004 21 53 3.2 4.8 0.00 0.00 0.00 67 1012.6
20260509181505 21 72 6.4 11.3 0.00 0.00 0.00 67 1012.4
20260509181004 21 106 4.8 9.7 0.00 0.00 0.00 66 1012.6
20260509180505 21 26 3.2 4.8 0.00 0.00 0.00 65 1012.5
20260509180005 21 68 6.4 11.3 0.00 0.00 0.00 64 1012.5
20260509175504 22 41 4.8 6.4 0.00 0.00 0.00 63 1012.5
20260509175006 22 64 4.8 9.7 0.00 0.00 0.00 62 1012.5
20260509174505 22 87 6.4 6.4 0.00 0.00 0.00 62 1012.5
20260509174005 22 36 3.2 9.7 0.00 0.00 0.00 61 1012.8
20260509173505 22 84 8.0 12.9 0.00 0.00 0.00 61 1012.6
20260509173005 22 68 8.0 14.5 0.00 0.00 0.00 61 1012.5
20260509172504 22 84 4.8 6.4 0.00 0.00 0.00 60 1012.7
20260509172005 22 101 6.4 9.7 0.00 0.00 0.00 62 1012.8
20260509171505 22 31 1.6 9.7 0.00 0.00 0.00 59 1012.7
20260509171005 22 47 3.2 6.4 0.00 0.00 0.00 62 1012.7
20260509170506 22 25 3.2 4.8 0.00 0.00 0.00 60 1013.0
20260509170006 22 53 4.8 9.7 0.00 0.00 0.00 60 1012.6
20260509165504 23 44 4.8 6.4 0.00 0.00 0.00 60 1012.9
20260509165005 23 123 3.2 6.4 0.00 0.00 0.00 59 1012.9
20260509164504 23 137 8.0 12.9 0.00 0.00 0.00 57 1012.8
20260509164004 23 93 6.4 11.3 0.00 0.00 0.00 58 1012.8
20260509163505 23 85 1.6 9.7 0.00 0.00 0.00 58 1012.7
20260509163004 23 101 3.2 6.4 0.00 0.00 0.00 60 1012.8
20260509162505 23 139 8.0 11.3 0.00 0.00 0.00 59 1012.9
20260509162004 23 58 4.8 12.9 0.00 0.00 0.00 58 1013.0
20260509161504 23 114 8.0 12.9 0.00 0.00 0.00 59 1012.8
20260509161006 23 76 6.4 9.7 0.00 0.00 0.00 60 1013.0
20260509160506 23 81 9.7 16.1 0.00 0.00 0.00 58 1013.2
20260509160006 23 65 9.7 12.9 0.00 0.00 0.00 56 1013.0
20260509155504 23 106 3.2 9.7 0.00 0.00 0.00 56 1013.0
20260509155004 23 67 1.6 4.8 0.00 0.00 0.00 57 1013.3
20260509154506 23 70 0.0 6.4 0.00 0.00 0.00 56 1013.2
20260509154005 23 110 8.0 11.3 0.00 0.00 0.00 56 1013.3
20260509153506 23 76 6.4 9.7 0.00 0.00 0.00 56 1013.2
20260509153004 23 57 4.8 9.7 0.00 0.00 0.00 55 1013.3
20260509152503 23 36 6.4 12.9 0.00 0.00 0.00 56 1013.1
20260509152005 24 55 9.7 11.3 0.00 0.00 0.00 55 1013.2
20260509151506 24 61 8.0 11.3 0.00 0.00 0.00 55 1013.1
20260509151006 24 35 3.2 4.8 0.00 0.00 0.00 54 1013.3
20260509150506 24 117 4.8 9.7 0.00 0.00 0.00 52 1013.4
20260509150005 25 119 4.8 11.3 0.00 0.00 0.00 52 1013.5
20260509145504 25 93 11.3 14.5 0.00 0.00 0.00 50 1013.4
20260509145006 25 118 6.4 12.9 0.00 0.00 0.00 51 1013.6
20260509144505 25 54 4.8 14.5 0.00 0.00 0.00 52 1013.5
20260509144005 25 34 4.8 9.7 0.00 0.00 0.00 54 1013.6
20260509143506 25 93 8.0 17.7 0.00 0.00 0.00 54 1013.5
20260509143005 25 86 6.4 11.3 0.00 0.00 0.00 54 1013.6
20260509142504 25 49 8.0 9.7 0.00 0.00 0.00 55 1013.6
20260509142004 25 67 3.2 12.9 0.00 0.00 0.00 52 1013.7
20260509141505 25 81 6.4 17.7 0.00 0.00 0.00 52 1013.8
20260509141005 25 116 9.7 20.9 0.00 0.00 0.00 49 1013.4
20260509140505 25 69 3.2 16.1 0.00 0.00 0.00 53 1013.6
20260509140006 24 131 6.4 11.3 0.00 0.00 0.00 54 1013.7
20260509135505 24 145 6.4 11.3 0.00 0.00 0.00 56 1013.6
20260509135005 25 41 8.0 17.7 0.00 0.00 0.00 54 1013.5
20260509134005 25 84 9.7 14.5 0.00 0.00 0.00 54 1013.7
20260509133506 25 347 9.7 17.7 0.00 0.00 0.00 54 1013.8
20260509133006 25 73 9.7 17.7 0.00 0.00 0.00 55 1013.7
20260509132505 25 81 8.0 17.7 0.00 0.00 0.00 56 1013.8
20260509131506 24 85 11.3 16.1 0.00 0.00 0.00 57 1013.9
20260509131004 25 85 12.9 16.1 0.00 0.00 0.00 56 1013.8
20260509130505 24 30 6.4 16.1 0.00 0.00 0.00 55 1013.9
20260509130006 24 11 4.8 11.3 0.00 0.00 0.00 54 1014.0
20260509125505 24 88 14.5 17.7 0.00 0.00 0.00 54 1014.1
20260509125005 25 125 16.1 20.9 0.00 0.00 0.00 54 1014.1
20260509124504 25 42 8.0 12.9 0.00 0.00 0.00 54 1014.0
20260509124005 24 114 8.0 12.9 0.00 0.00 0.00 54 1014.1
20260509123505 24 122 9.7 17.7 0.00 0.00 0.00 55 1014.4
20260509123005 23 116 8.0 12.9 0.00 0.00 0.00 56 1014.4
20260509122504 23 98 16.1 20.9 0.00 0.00 0.00 57 1014.5
20260509122006 23 76 9.7 17.7 0.00 0.00 0.00 56 1014.3
20260509121506 23 95 12.9 16.1 0.00 0.00 0.00 60 1014.3
20260509121005 23 32 4.8 14.5 0.00 0.00 0.00 59 1014.4
20260509120505 23 50 9.7 12.9 0.00 0.00 0.00 60 1014.5
20260509120005 23 95 12.9 16.1 0.00 0.00 0.00 62 1014.7
20260509115505 23 83 6.4 20.9 0.00 0.00 0.00 60 1014.7
20260509115005 23 51 14.5 17.7 0.00 0.00 0.00 62 1014.5
20260509114506 23 86 8.0 14.5 0.00 0.00 0.00 63 1014.7
20260509114004 23 48 6.4 17.7 0.00 0.00 0.00 61 1014.6
20260509113504 23 23 9.7 12.9 0.00 0.00 0.00 62 1014.6
20260509113005 22 81 6.4 14.5 0.00 0.00 0.00 63 1014.7
20260509112505 23 55 9.7 20.9 0.00 0.00 0.00 63 1014.8
20260509112005 22 0 3.2 12.9 0.00 0.00 0.00 63 1014.9
20260509111505 22 98 8.0 16.1 0.00 0.00 0.00 62 1015.0
20260509111005 22 81 4.8 14.5 0.00 0.00 0.00 63 1015.0
20260509110504 22 139 3.2 6.4 0.00 0.00 0.00 64 1015.0
20260509110004 22 98 9.7 14.5 0.00 0.00 0.00 64 1015.1
20260509105505 22 117 9.7 12.9 0.00 0.00 0.00 64 1015.1
20260509105006 22 48 8.0 11.3 0.00 0.00 0.00 66 1015.1
20260509104504 22 349 4.8 11.3 0.00 0.00 0.00 67 1015.0
20260509104005 22 111 8.0 12.9 0.00 0.00 0.00 62 1015.2
20260509103505 22 45 6.4 12.9 0.00 0.00 0.00 65 1015.1
20260509103005 22 99 3.2 11.3 0.00 0.00 0.00 67 1015.2
20260509102505 22 95 9.7 12.9 0.00 0.00 0.00 66 1015.2
20260509102005 21 159 3.2 9.7 0.00 0.00 0.00 67 1015.3
20260509101503 21 82 8.0 11.3 0.00 0.00 0.00 65 1015.4
20260509101005 21 105 9.7 14.5 0.00 0.00 0.00 66 1015.3
20260509100505 22 81 9.7 14.5 0.00 0.00 0.00 68 1015.3
20260509100006 22 45 4.8 4.8 0.00 0.00 0.00 65 1015.3
20260509095505 21 70 4.8 12.9 0.00 0.00 0.00 67 1015.4
20260509095005 21 89 9.7 12.9 0.00 0.00 0.00 68 1015.3
20260509094505 21 55 6.4 11.3 0.00 0.00 0.00 70 1015.4
20260509094005 21 9 6.4 11.3 0.00 0.00 0.00 71 1015.4
20260509093505 20 30 6.4 9.7 0.00 0.00 0.00 72 1015.6
20260509093005 20 49 4.8 11.3 0.00 0.00 0.00 69 1015.6
20260509092505 20 126 3.2 12.9 0.00 0.00 0.00 71 1015.5
20260509092006 20 1 4.8 11.3 0.00 0.00 0.00 72 1015.6
20260509091505 20 115 3.2 11.3 0.00 0.00 0.00 72 1015.7
20260509091004 20 125 6.4 16.1 0.00 0.00 0.00 71 1015.4
20260509090503 20 67 3.2 6.4 0.00 0.00 0.00 71 1015.5
20260509090005 20 82 1.6 11.3 0.00 0.00 0.00 71 1015.5
20260509085505 20 133 4.8 9.7 0.00 0.00 0.00 74 1015.5
20260509085006 19 73 3.2 9.7 0.00 0.00 0.00 76 1015.6
20260509084506 19 126 6.4 9.7 0.00 0.00 0.00 77 1015.6
20260509084006 19 41 6.4 12.9 0.00 0.00 0.00 75 1015.6
20260509083506 18 337 1.6 6.4 0.00 0.00 0.00 75 1015.8
20260509083004 18 130 4.8 6.4 0.00 0.00 0.00 77 1015.8
20260509082505 18 128 6.4 12.9 0.00 0.00 0.00 76 1015.7
20260509082004 18 55 8.0 12.9 0.00 0.00 0.00 77 1016.0
20260509081505 17 100 3.2 6.4 0.00 0.00 0.00 79 1015.8
20260509081004 17 95 3.2 12.9 0.00 0.00 0.00 79 1015.9
20260509080505 17 41 3.2 9.7 0.00 0.00 0.00 80 1015.8
20260509080005 16 102 3.2 9.7 0.00 0.00 0.00 81 1016.0
20260509075505 16 130 4.8 14.5 0.00 0.00 0.00 83 1015.9
20260509075005 16 56 6.4 9.7 0.00 0.00 0.00 84 1016.0
20260509074505 16 47 6.4 9.7 0.00 0.00 0.00 84 1015.9
20260509074006 15 31 1.6 6.4 0.00 0.00 0.00 84 1016.1
20260509073505 15 59 9.7 14.5 0.00 0.00 0.00 85 1016.0
20260509073006 15 67 3.2 4.8 0.00 0.00 0.00 85 1016.1
20260509072506 15 54 9.7 12.9 0.00 0.00 0.00 86 1016.1
20260509072005 14 31 3.2 4.8 0.00 0.00 0.00 86 1016.0
20260509071505 14 61 4.8 4.8 0.00 0.00 0.00 86 1015.9
20260509071005 13 58 3.2 11.3 0.00 0.00 0.00 87 1016.0
20260509070504 13 36 6.4 6.4 0.00 0.00 0.00 87 1016.1
20260509070004 13 94 1.6 6.4 0.00 0.00 0.00 87 1016.0
20260509065506 13 66 3.2 4.8 0.00 0.00 0.00 87 1016.1
20260509065004 13 37 4.8 6.4 0.00 0.00 0.00 88 1016.1
20260509064504 12 96 3.2 6.4 0.00 0.00 0.00 87 1016.1
20260509064005 12 75 3.2 4.8 0.00 0.00 0.00 88 1016.1
20260509063504 12 79 3.2 6.4 0.00 0.00 0.00 87 1016.0
20260509063005 12 92 1.6 6.4 0.00 0.00 0.00 88 1015.8
20260509062505 12 45 1.6 3.2 0.00 0.00 0.00 89 1015.9
20260509062005 11 55 1.6 6.4 0.00 0.00 0.00 90 1015.8
20260509061505 11 112 1.6 3.2 0.00 0.00 0.00 90 1015.9
20260509061005 11 114 3.2 3.2 0.00 0.00 0.00 91 1016.0
20260509060506 11 78 1.6 4.8 0.00 0.00 0.00 91 1015.9
20260509060004 11 30 1.6 3.2 0.00 0.00 0.00 91 1015.8
20260509055504 10 1 1.6 3.2 0.00 0.00 0.00 92 1015.7
20260509055005 10 45 1.6 1.6 0.00 0.00 0.00 92 1015.8
20260509054504 10 88 0.0 1.6 0.00 0.00 0.00 92 1015.7
20260509054004 10 86 0.0 1.6 0.00 0.00 0.00 93 1015.8
20260509053505 10 87 1.6 3.2 0.00 0.00 0.00 93 1015.8
20260509053005 10 87 1.6 1.6 0.00 0.00 0.00 93 1015.6
20260509052503 9 86 0.0 1.6 0.00 0.00 0.00 93 1015.5
20260509052005 9 86 0.0 0.0 0.00 0.00 0.00 93 1015.5
20260509051503 9 86 0.0 1.6 0.00 0.00 0.00 93 1015.6
20260509051005 9 87 0.0 0.0 0.00 0.00 0.00 93 1015.5
20260509050503 9 87 0.0 0.0 0.00 0.00 0.00 93 1015.7
20260509050004 9 87 0.0 1.6 0.00 0.00 0.00 93 1015.5
20260509045505 9 87 0.0 1.6 0.00 0.00 0.00 92 1015.4
20260509045004 9 85 0.0 3.2 0.00 0.00 0.00 92 1015.6
20260509044505 9 86 1.6 1.6 0.00 0.00 0.00 92 1015.2
20260509044005 9 100 1.6 3.2 0.00 0.00 0.00 92 1015.4
20260509043505 9 101 1.6 1.6 0.00 0.00 0.00 93 1015.6
20260509043006 9 96 0.0 1.6 0.00 0.00 0.00 93 1015.5
20260509042504 9 45 0.0 3.2 0.00 0.00 0.00 92 1015.5
20260509042005 9 107 3.2 3.2 0.00 0.00 0.00 92 1015.5
20260509041505 9 73 1.6 1.6 0.00 0.00 0.00 92 1015.2
20260509041005 9 3 1.6 4.8 0.00 0.00 0.00 92 1015.2
20260509040505 9 17 3.2 3.2 0.00 0.00 0.00 92 1015.4
20260509040005 9 78 0.0 4.8 0.00 0.00 0.00 92 1015.3
20260509035504 9 84 1.6 3.2 0.00 0.00 0.00 92 1015.3
20260509035005 9 78 3.2 3.2 0.00 0.00 0.00 92 1015.3
20260509034505 9 54 1.6 3.2 0.00 0.00 0.00 92 1015.3
20260509034005 10 25 1.6 3.2 0.00 0.00 0.00 92 1015.1
20260509033504 10 60 3.2 4.8 0.00 0.00 0.00 92 1015.3
20260509033005 10 74 3.2 6.4 0.00 0.00 0.00 92 1015.5
20260509032505 9 83 3.2 6.4 0.00 0.00 0.00 92 1015.5
20260509032005 9 64 3.2 4.8 0.00 0.00 0.00 92 1015.5
20260509031505 9 80 3.2 4.8 0.00 0.00 0.00 92 1015.7
20260509031005 9 75 3.2 4.8 0.00 0.00 0.00 93 1015.6
20260509030505 9 73 3.2 3.2 0.00 0.00 0.00 93 1015.6
20260509030006 9 56 1.6 1.6 0.00 0.00 0.00 92 1015.8
20260509025505 9 69 1.6 1.6 0.00 0.00 0.00 92 1015.7
20260509025005 9 355 1.6 3.2 0.00 0.00 0.00 92 1015.6
20260509024503 9 6 1.6 1.6 0.00 0.00 0.00 92 1015.7
20260509024005 9 76 1.6 3.2 0.00 0.00 0.00 92 1015.6
20260509023505 9 98 0.0 1.6 0.00 0.00 0.00 92 1015.9
20260509023005 9 86 0.0 1.6 0.00 0.00 0.00 92 1015.5
20260509022504 9 61 0.0 3.2 0.00 0.00 0.00 92 1015.5
20260509022004 10 77 1.6 3.2 0.00 0.00 0.00 92 1015.7
20260509021505 10 83 3.2 3.2 0.00 0.00 0.00 93 1015.7